Scappoose, OR

11:42 AM PST on December 05, 2016 (GMT -0800)
Scappoose Industrial

Weather History for KSPB - March, 2014

Change the Weather History Date:

Sunday, March 30, 2014

  Actual Average Record
Temperature  
Mean Temperature 46 °F -  
Max Temperature 56 °F - 77 °F (2013)
Min Temperature 35 °F - 30 °F (2008)
Degree Days  
Heating Degree Days 19    
Month to date heating degree days 512  
Since 1 July heating degree days 4143  
Cooling Degree Days 0    
Month to date cooling degree days 0  
Year to date cooling degree days 0  
Moisture  
Dew Point 40 °F    
Average Humidity 77    
Maximum Humidity 100    
Minimum Humidity 54    
Precipitation  
Precipitation 0.06 in - 0.40 in (2012)
Month to date precipitation 8.16  
Year to date precipitation 17.26  
Sea Level Pressure  
Sea Level Pressure 29.97 in    
Wind  
Wind Speed 4 mph (SW)    
Max Wind Speed 14 mph    
Max Gust Speed 18 mph    
Visibility 8 miles    
Events Rain    
T = Trace of Precipitation, MM = Missing Value Source: NWS Daily Summary

Daily Weather History Graph

Daily Weather History Graph

Search for Another Location

Airport or City:

Trip Planner

Search our weather history database for the weather conditions in past years. The results will help you decide how hot, cold, wet, or windy it might be!

Date:

Astronomy

Mar. 30, 2014 Rise Set
Actual Time 6:55 AM PDT 7:37 PM PDT
Civil Twilight 6:25 AM PDT 8:07 PM PDT
Nautical Twilight 5:49 AM PDT 8:43 PM PDT
Astronomical Twilight 5:12 AM PDT 9:20 PM PDT
Moon 6:44 AM PDT (3/30) 7:58 PM PDT (3/30)
Length of Visible Light 13h 42m
Length of Day
12h 42m
New Moon, 0% of the Moon is Illuminated
Mar 30
New Moon
Apr 7
First Quarter
Apr 15
Full
Apr 22
Last Quarter
Apr 28
New

Hourly Weather History & Observations

Time (PDT) Temp. Windchill Dew Point Humidity Pressure Visibility Wind Dir Wind Speed Gust Speed Precip Events Conditions
12:53 AM 45.0 °F 42.6 °F 43.0 °F 93% 29.91 in 9.0 mi Variable 4.6 mph - 0.01 in Rain Light Rain
1:45 AM 45.0 °F 43.5 °F 43.0 °F 93% 29.92 in 10.0 mi SSE 3.5 mph - 0.02 in   Overcast
1:53 AM 45.0 °F 43.5 °F 43.0 °F 93% 29.92 in 10.0 mi SSE 3.5 mph - 0.02 in   Overcast
2:30 AM 45.0 °F - 42.1 °F 90% 29.93 in 10.0 mi Calm Calm - 0.00 in Rain Light Rain
2:53 AM 44.1 °F - 43.0 °F 96% 29.93 in 10.0 mi Calm Calm - 0.01 in Rain Light Rain
3:53 AM 42.1 °F 40.2 °F 41.0 °F 96% 29.93 in 7.0 mi WNW 3.5 mph - 0.00 in   Mostly Cloudy
4:21 AM 39.9 °F 37.8 °F 39.9 °F 100% 29.94 in 1.8 mi WNW 3.5 mph - N/A   Clear
4:31 AM 39.0 °F 36.8 °F 39.0 °F 100% 29.95 in 0.8 mi West 3.5 mph - N/A   Scattered Clouds
4:36 AM 39.9 °F 37.8 °F 39.0 °F 97% 29.95 in 2.0 mi WSW 3.5 mph - N/A   Mostly Cloudy
4:44 AM 41.0 °F 39.0 °F 39.9 °F 96% 29.95 in 10.0 mi West 3.5 mph - N/A   Mostly Cloudy
4:53 AM 41.0 °F 38.0 °F 41.0 °F 100% 29.96 in 10.0 mi West 4.6 mph - 0.00 in Rain Light Rain
5:53 AM 42.1 °F 39.2 °F 41.0 °F 96% 29.97 in 10.0 mi West 4.6 mph - 0.01 in   Overcast
6:53 AM 37.9 °F - 37.9 °F 100% 29.98 in 3.0 mi Calm Calm - N/A   Clear
6:55 AM 37.9 °F - 37.9 °F 100% 29.98 in 1.5 mi Calm Calm - N/A   Clear
7:17 AM 37.9 °F 35.5 °F 37.9 °F 100% 29.99 in 3.0 mi West 3.5 mph - N/A   Partly Cloudy
7:53 AM 37.9 °F 35.5 °F 37.9 °F 100% 29.99 in 10.0 mi West 3.5 mph - N/A   Clear
8:24 AM 42.1 °F 39.2 °F 41.0 °F 96% 30.00 in 10.0 mi ESE 4.6 mph - N/A   Scattered Clouds
8:53 AM 45.0 °F - 42.1 °F 90% 30.01 in 10.0 mi Calm Calm - N/A   Overcast
9:53 AM 46.9 °F - 39.9 °F 77% 30.01 in 10.0 mi SSW 3.5 mph - N/A   Overcast
10:53 AM 48.9 °F - 41.0 °F 74% 30.01 in 10.0 mi WSW 3.5 mph - N/A   Overcast
11:24 AM 51.1 °F - 41.0 °F 68% 30.01 in 10.0 mi SW 9.2 mph - N/A   Mostly Cloudy
11:33 AM 51.1 °F - 39.9 °F 66% 30.01 in 10.0 mi SSW 11.5 mph - N/A   Overcast
11:53 AM 52.0 °F - 41.0 °F 66% 30.01 in 10.0 mi SSW 5.8 mph - N/A   Overcast
12:53 PM 51.1 °F - 37.9 °F 61% 30.00 in 10.0 mi WSW 4.6 mph - 0.00 in Rain Light Rain
1:53 PM 50.0 °F - 39.9 °F 68% 30.00 in 10.0 mi North - - 0.04 in Rain Light Rain
2:53 PM 51.1 °F - 39.9 °F 66% 29.99 in 10.0 mi SSE 6.9 mph - 0.00 in   Scattered Clouds
3:53 PM 54.0 °F - 37.0 °F 53% 29.98 in 10.0 mi East 5.8 mph - 0.00 in   Partly Cloudy
4:53 PM 53.1 °F - 37.9 °F 57% 29.97 in 10.0 mi SE 11.5 mph - N/A   Overcast
5:53 PM 51.1 °F - 39.0 °F 63% 29.97 in 10.0 mi South 8.1 mph - N/A   Clear
6:53 PM 48.9 °F - 37.9 °F 66% 29.98 in 10.0 mi WSW 4.6 mph - N/A   Mostly Cloudy
7:53 PM 46.9 °F - 37.9 °F 71% 29.98 in 10.0 mi Calm Calm - N/A   Scattered Clouds
8:53 PM 43.0 °F - 39.0 °F 86% 29.99 in 10.0 mi Calm Calm - N/A   Partly Cloudy
9:53 PM 39.0 °F 36.8 °F 37.0 °F 93% 29.99 in 8.0 mi WSW 3.5 mph - N/A   Clear
10:53 PM 37.0 °F 33.3 °F 36.0 °F 96% 29.98 in 10.0 mi West 4.6 mph - N/A   Clear
11:53 PM 37.0 °F - 35.1 °F 93% 29.97 in 10.0 mi Calm Calm - N/A   Clear